{"data":{"norad_id":63927,"intl_designator":"2025-098B","name":"STARLINK-33956","alt_names":[],"object_type":"PAYLOAD","status":"ACTIVE","operator":null,"country":"US","launch_date":"2025-05-13","launch_site_code":"AFWTR","launch_vehicle":null,"mission":null,"orbit_class":"UNKNOWN","rcs_meters":null,"size_class":null,"mass_kg":null,"dimensions":null,"purposes":["comms"],"wikipedia_slug":null,"has_3d_model":false,"image_url":null,"decayed_at":null,"tle_current":{"epoch":"2026-05-25T04:00:03.998880Z","epoch_age_seconds":50863,"freshness":"FRESH","line1":"1 63927U 25098B   26145.16671295  .00028555  00000+0  23910-2 0  9997","line2":"2 63927  70.0009  81.4744 0003084 277.9871  16.2418 14.98332800  5756","mean_motion":14.983328,"eccentricity":0.0003084,"inclination_deg":70.0009,"raan_deg":81.4744,"arg_perigee_deg":277.9871,"mean_anomaly_deg":16.2418,"bstar":0.002391,"rev_number":575,"period_min":96.106819526343,"perigee_km":569.90379537167,"apogee_km":574.19066900608,"semimajor_km":6950.1842321889,"source":"CELESTRAK","updated_at":"2026-05-25T13:38:20.182354Z"}}}